| time (UTC) | temp F | wind direction | speed MPH | gust MPH | rain 1hr in | rain 24hr in | rain mn in | humidity % | barometer mb |
| 20260904162006 | 89 | 101 | 3.0 | 10.0 | 0.00 | 0.67 | 0.01 | 69 | 1013.8 |
| 20260904161517 | 90 | 85 | 3.0 | 9.0 | 0.00 | 0.67 | 0.01 | 68 | 1013.8 |
| 20260904160502 | 89 | 180 | 3.0 | 9.0 | 0.00 | 0.67 | 0.01 | 67 | 1013.7 |
| 20260904160027 | 89 | 141 | 2.0 | 8.0 | 0.00 | 0.67 | 0.01 | 69 | 1013.7 |
| 20260904155502 | 89 | 129 | 2.0 | 7.0 | 0.00 | 0.67 | 0.01 | 68 | 1013.7 |
| 20260904155004 | 88 | 64 | 1.0 | 6.0 | 0.00 | 0.67 | 0.01 | 72 | 1013.7 |
| 20260904154518 | 88 | 138 | 2.0 | 4.0 | 0.00 | 0.67 | 0.01 | 72 | 1013.7 |
| 20260904154004 | 88 | 91 | 2.0 | 4.0 | 0.00 | 0.67 | 0.01 | 71 | 1013.7 |
| 20260904153502 | 88 | 85 | 2.0 | 6.0 | 0.00 | 0.67 | 0.01 | 72 | 1013.6 |
| 20260904152502 | 87 | 148 | 1.0 | 4.0 | 0.00 | 0.67 | 0.01 | 75 | 1013.6 |
| 20260904152004 | 86 | 166 | 1.0 | 4.0 | 0.00 | 0.67 | 0.01 | 77 | 1013.6 |
| 20260904151517 | 86 | 133 | 2.0 | 4.0 | 0.00 | 0.67 | 0.01 | 76 | 1013.6 |
| 20260904150502 | 86 | 35 | 2.0 | 6.0 | 0.00 | 0.67 | 0.01 | 79 | 1013.5 |
| 20260904150026 | 86 | 104 | 2.0 | 7.0 | 0.00 | 0.67 | 0.01 | 80 | 1013.5 |
| 20260904145003 | 85 | 160 | 1.0 | 4.0 | 0.00 | 0.67 | 0.01 | 84 | 1013.6 |
| 20260904144518 | 85 | 108 | 1.0 | 4.0 | 0.00 | 0.67 | 0.01 | 85 | 1013.7 |
| 20260904143502 | 83 | 60 | 1.0 | 3.0 | 0.00 | 0.67 | 0.01 | 87 | 1013.6 |
| 20260904143023 | 83 | 98 | 1.0 | 3.0 | 0.00 | 0.67 | 0.01 | 89 | 1013.6 |
| 20260904142004 | 82 | 96 | 1.0 | 3.0 | 0.00 | 0.67 | 0.01 | 91 | 1013.5 |
| 20260904141517 | 81 | 98 | 1.0 | 3.0 | 0.00 | 0.67 | 0.01 | 91 | 1013.6 |
| 20260904141003 | 81 | 63 | 1.0 | 3.0 | 0.00 | 0.67 | 0.01 | 92 | 1013.6 |
| 20260904140502 | 80 | 111 | 1.0 | 3.0 | 0.00 | 0.67 | 0.01 | 91 | 1013.5 |
| 20260904135503 | 80 | 74 | 1.0 | 3.0 | 0.00 | 0.67 | 0.01 | 92 | 1013.5 |
| 20260904135005 | 80 | 65 | 1.0 | 3.0 | 0.00 | 0.67 | 0.01 | 92 | 1013.5 |
| 20260904134518 | 80 | 139 | 1.0 | 4.0 | 0.00 | 0.67 | 0.01 | 92 | 1013.5 |
| 20260904134004 | 80 | 63 | 1.0 | 4.0 | 0.00 | 0.67 | 0.01 | 92 | 1013.6 |
| 20260904133502 | 80 | 96 | 1.0 | 3.0 | 0.00 | 0.67 | 0.01 | 92 | 1013.5 |
| 20260904133025 | 80 | 54 | 1.0 | 2.0 | 0.00 | 0.67 | 0.01 | 92 | 1013.5 |
| 20260904132502 | 80 | 106 | 1.0 | 2.0 | 0.00 | 0.67 | 0.01 | 92 | 1013.4 |
| 20260904132005 | 80 | 58 | 0.0 | 2.0 | 0.00 | 0.67 | 0.01 | 92 | 1013.4 |
| 20260904131518 | 79 | 48 | 0.0 | 2.0 | 0.00 | 0.67 | 0.01 | 92 | 1013.3 |
| 20260904131003 | 79 | 98 | 0.0 | 1.0 | 0.00 | 0.67 | 0.01 | 92 | 1013.3 |
| 20260904130503 | 79 | 98 | 0.0 | 1.0 | 0.00 | 0.67 | 0.01 | 92 | 1013.2 |
| 20260904130025 | 79 | 98 | 0.0 | 1.0 | 0.00 | 0.67 | 0.01 | 92 | 1013.2 |
| 20260904125500 | 79 | 98 | 0.0 | 1.0 | 0.00 | 0.67 | 0.01 | 92 | 1013.1 |
| 20260904124516 | 79 | 98 | 0.0 | 1.0 | 0.00 | 0.67 | 0.01 | 92 | 1012.9 |
| 20260904124003 | 79 | 98 | 0.0 | 1.0 | 0.00 | 0.67 | 0.01 | 92 | 1012.8 |
| 20260904123501 | 79 | 98 | 0.0 | 1.0 | 0.00 | 0.67 | 0.01 | 92 | 1012.7 |
| 20260904123025 | 79 | 98 | 0.0 | 1.0 | 0.00 | 0.67 | 0.01 | 92 | 1012.6 |
| 20260904122501 | 79 | 98 | 0.0 | 0.0 | 0.00 | 0.67 | 0.01 | 92 | 1012.6 |
| 20260904122003 | 79 | 98 | 0.0 | 0.0 | 0.00 | 0.67 | 0.01 | 92 | 1012.5 |
| 20260904121516 | 79 | 98 | 0.0 | 0.0 | 0.00 | 0.67 | 0.01 | 92 | 1012.5 |
| 20260904120501 | 79 | 98 | 0.0 | 2.0 | 0.00 | 0.67 | 0.01 | 92 | 1012.4 |
| 20260904120027 | 79 | 98 | 0.0 | 2.0 | 0.00 | 0.67 | 0.01 | 92 | 1012.4 |
| 20260904115002 | 79 | 128 | 0.0 | 1.0 | 0.00 | 0.67 | 0.01 | 92 | 1012.3 |
| 20260904114516 | 79 | 128 | 0.0 | 2.0 | 0.00 | 0.67 | 0.01 | 92 | 1012.4 |
| 20260904114003 | 79 | 156 | 0.0 | 2.0 | 0.01 | 0.67 | 0.01 | 92 | 1012.4 |
| 20260904113501 | 79 | 84 | 1.0 | 3.0 | 0.01 | 0.67 | 0.01 | 92 | 1012.5 |
| 20260904113025 | 79 | 91 | 0.0 | 3.0 | 0.01 | 0.67 | 0.01 | 92 | 1012.4 |
| 20260904112502 | 79 | 94 | 0.0 | 2.0 | 0.01 | 0.67 | 0.01 | 92 | 1012.5 |
| 20260904112003 | 79 | 94 | 0.0 | 2.0 | 0.01 | 0.67 | 0.01 | 92 | 1012.5 |
| 20260904111516 | 79 | 83 | 0.0 | 2.0 | 0.01 | 0.67 | 0.01 | 92 | 1012.4 |
| 20260904111002 | 79 | 83 | 0.0 | 1.0 | 0.01 | 0.67 | 0.01 | 92 | 1012.4 |
| 20260904110501 | 79 | 83 | 0.0 | 2.0 | 0.01 | 0.67 | 0.01 | 92 | 1012.4 |
| 20260904110024 | 79 | 71 | 0.0 | 2.0 | 0.01 | 0.67 | 0.01 | 92 | 1012.4 |
| 20260904105500 | 79 | 173 | 0.0 | 1.0 | 0.01 | 0.67 | 0.01 | 92 | 1012.3 |
| 20260904104515 | 79 | 173 | 0.0 | 1.0 | 0.01 | 0.67 | 0.01 | 92 | 1012.1 |
| 20260904104002 | 79 | 173 | 0.0 | 1.0 | 0.00 | 0.66 | 0.00 | 92 | 1012.0 |
| 20260904103500 | 79 | 173 | 0.0 | 1.0 | 0.00 | 0.66 | 0.00 | 92 | 1012.0 |
| 20260904103023 | 79 | 172 | 0.0 | 1.0 | 0.00 | 0.66 | 0.00 | 92 | 1012.1 |
| 20260904102500 | 79 | 173 | 0.0 | 0.0 | 0.00 | 0.66 | 0.00 | 92 | 1012.0 |
| 20260904101515 | 79 | 173 | 0.0 | 1.0 | 0.00 | 0.66 | 0.00 | 92 | 1012.0 |
| 20260904101000 | 79 | 173 | 0.0 | 1.0 | 0.00 | 0.66 | 0.00 | 91 | 1012.0 |
| 20260904100500 | 79 | 173 | 0.0 | 0.0 | 0.00 | 0.66 | 0.00 | 91 | 1012.0 |
| 20260904100028 | 79 | 173 | 0.0 | 0.0 | 0.00 | 0.66 | 0.00 | 91 | 1012.0 |
| 20260904095003 | 79 | 173 | 0.0 | 0.0 | 0.00 | 0.66 | 0.00 | 91 | 1012.0 |
| 20260904094516 | 79 | 173 | 0.0 | 0.0 | 0.00 | 0.66 | 0.00 | 91 | 1011.9 |
| 20260904094002 | 79 | 173 | 0.0 | 1.0 | 0.00 | 0.66 | 0.00 | 91 | 1011.9 |
| 20260904093501 | 79 | 173 | 0.0 | 1.0 | 0.00 | 0.66 | 0.00 | 91 | 1011.8 |
| 20260904093024 | 79 | 173 | 0.0 | 1.0 | 0.00 | 0.66 | 0.00 | 91 | 1011.8 |
| 20260904092501 | 79 | 173 | 0.0 | 1.0 | 0.00 | 0.66 | 0.00 | 91 | 1011.8 |
| 20260904092002 | 79 | 173 | 0.0 | 1.0 | 0.00 | 0.66 | 0.00 | 91 | 1011.8 |
| 20260904091516 | 79 | 173 | 0.0 | 1.0 | 0.00 | 0.66 | 0.00 | 91 | 1011.8 |
| 20260904091002 | 79 | 173 | 0.0 | 1.0 | 0.00 | 0.66 | 0.00 | 91 | 1011.8 |
| 20260904090501 | 79 | 173 | 0.0 | 0.0 | 0.00 | 0.66 | 0.00 | 91 | 1011.8 |
| 20260904090021 | 79 | 173 | 0.0 | 1.0 | 0.00 | 0.66 | 0.00 | 91 | 1011.8 |
| 20260904085501 | 79 | 173 | 0.0 | 1.0 | 0.00 | 0.66 | 0.00 | 91 | 1011.7 |
| 20260904085001 | 79 | 173 | 0.0 | 0.0 | 0.00 | 0.66 | 0.00 | 91 | 1011.8 |
| 20260904084515 | 79 | 173 | 0.0 | 0.0 | 0.00 | 0.66 | 0.00 | 91 | 1011.8 |
| 20260904084002 | 79 | 173 | 0.0 | 0.0 | 0.00 | 0.66 | 0.00 | 91 | 1011.8 |
| 20260904083501 | 79 | 173 | 0.0 | 0.0 | 0.00 | 0.66 | 0.00 | 91 | 1011.7 |
| 20260904083024 | 79 | 173 | 0.0 | 0.0 | 0.00 | 0.66 | 0.00 | 91 | 1011.7 |
| 20260904082500 | 79 | 173 | 0.0 | 0.0 | 0.00 | 0.66 | 0.00 | 91 | 1011.8 |
| 20260904082001 | 79 | 173 | 0.0 | 1.0 | 0.00 | 0.66 | 0.00 | 91 | 1011.8 |
| 20260904081516 | 79 | 173 | 0.0 | 0.0 | 0.00 | 0.66 | 0.00 | 91 | 1011.8 |
| 20260904081001 | 79 | 173 | 0.0 | 0.0 | 0.00 | 0.66 | 0.00 | 91 | 1011.8 |
| 20260904080500 | 79 | 173 | 0.0 | 0.0 | 0.00 | 0.66 | 0.00 | 91 | 1011.9 |
| 20260904080023 | 79 | 173 | 0.0 | 0.0 | 0.00 | 0.66 | 0.00 | 90 | 1011.9 |
| 20260904075500 | 79 | 173 | 0.0 | 0.0 | 0.00 | 0.66 | 0.00 | 90 | 1011.9 |
| 20260904075000 | 79 | 173 | 0.0 | 0.0 | 0.00 | 0.66 | 0.00 | 90 | 1011.9 |
| 20260904074515 | 79 | 173 | 0.0 | 0.0 | 0.00 | 0.66 | 0.00 | 90 | 1012.0 |
| 20260904074001 | 79 | 173 | 0.0 | 0.0 | 0.00 | 0.66 | 0.00 | 90 | 1012.1 |
| 20260904073500 | 79 | 173 | 0.0 | 0.0 | 0.00 | 0.66 | 0.00 | 90 | 1012.1 |
| 20260904073025 | 79 | 173 | 0.0 | 0.0 | 0.00 | 0.66 | 0.00 | 90 | 1012.1 |
| 20260904072500 | 79 | 173 | 0.0 | 0.0 | 0.00 | 0.66 | 0.00 | 90 | 1012.1 |
| 20260904071001 | 79 | 173 | 0.0 | 1.0 | 0.00 | 0.66 | 0.00 | 90 | 1012.1 |
| 20260904070501 | 79 | 173 | 0.0 | 1.0 | 0.00 | 0.66 | 0.00 | 90 | 1012.1 |
| 20260904065500 | 79 | 152 | 0.0 | 1.0 | 0.00 | 0.66 | 0.00 | 90 | 1012.2 |
| 20260904065000 | 79 | 131 | 0.0 | 1.0 | 0.00 | 0.66 | 0.00 | 90 | 1012.3 |
| 20260904064002 | 79 | 159 | 0.0 | 1.0 | 0.00 | 0.66 | 0.00 | 90 | 1012.4 |
| 20260904063500 | 79 | 134 | 0.0 | 1.0 | 0.00 | 0.66 | 0.00 | 90 | 1012.4 |
| 20260904063023 | 79 | 96 | 0.0 | 1.0 | 0.00 | 0.66 | 0.00 | 90 | 1012.4 |
| 20260904062500 | 79 | 96 | 0.0 | 1.0 | 0.00 | 0.66 | 0.00 | 90 | 1012.3 |
| 20260904061516 | 79 | 96 | 0.0 | 1.0 | 0.00 | 0.66 | 0.00 | 90 | 1012.3 |
| 20260904061001 | 79 | 96 | 0.0 | 1.0 | 0.00 | 0.66 | 0.00 | 90 | 1012.4 |
| 20260904060026 | 79 | 96 | 0.0 | 2.0 | 0.00 | 0.66 | 0.00 | 90 | 1012.4 |
| 20260904055458 | 79 | 107 | 0.0 | 2.0 | 0.00 | 0.66 | 0.00 | 90 | 1012.4 |
| 20260904055001 | 79 | 95 | 0.0 | 2.0 | 0.00 | 0.66 | 0.00 | 90 | 1012.3 |
| 20260904054001 | 79 | 116 | 0.0 | 1.0 | 0.00 | 0.66 | 0.00 | 90 | 1012.3 |
| 20260904053458 | 79 | 89 | 0.0 | 2.0 | 0.00 | 0.66 | 0.00 | 89 | 1012.2 |
| 20260904053022 | 79 | 89 | 0.0 | 2.0 | 0.00 | 0.66 | 0.00 | 89 | 1012.2 |
| 20260904052459 | 79 | 160 | 0.0 | 1.0 | 0.00 | 0.66 | 0.00 | 89 | 1012.2 |
| 20260904052000 | 80 | 160 | 0.0 | 2.0 | 0.00 | 0.66 | 0.00 | 89 | 1012.2 |
| 20260904051513 | 80 | 160 | 0.0 | 2.0 | 0.00 | 0.66 | 0.00 | 89 | 1012.1 |
| 20260904050959 | 79 | 132 | 0.0 | 2.0 | 0.00 | 0.66 | 0.00 | 89 | 1012.1 |
| 20260904050459 | 79 | 132 | 0.0 | 2.0 | 0.00 | 0.66 | 0.00 | 89 | 1012.2 |
| 20260904050027 | 79 | 197 | 0.0 | 1.0 | 0.00 | 0.66 | 0.66 | 89 | 1012.2 |
| 20260904045505 | 79 | 136 | 0.0 | 2.0 | 0.00 | 0.66 | 0.66 | 89 | 1012.1 |
| 20260904045006 | 80 | 136 | 0.0 | 2.0 | 0.00 | 0.66 | 0.66 | 89 | 1012.2 |
| 20260904044520 | 80 | 137 | 0.0 | 2.0 | 0.00 | 0.66 | 0.66 | 89 | 1012.2 |
| 20260904044006 | 80 | 81 | 0.0 | 2.0 | 0.00 | 0.66 | 0.66 | 89 | 1012.1 |
| 20260904043505 | 80 | 148 | 0.0 | 2.0 | 0.00 | 0.66 | 0.66 | 89 | 1012.0 |
| 20260904043025 | 80 | 146 | 0.0 | 3.0 | 0.00 | 0.66 | 0.66 | 89 | 1012.1 |
| 20260904042505 | 80 | 151 | 1.0 | 3.0 | 0.00 | 0.66 | 0.66 | 90 | 1012.1 |
| 20260904042006 | 80 | 117 | 1.0 | 2.0 | 0.00 | 0.66 | 0.66 | 90 | 1012.2 |
| 20260904041006 | 79 | 152 | 1.0 | 3.0 | 0.00 | 0.66 | 0.66 | 90 | 1012.1 |
| 20260904040505 | 79 | 154 | 1.0 | 3.0 | 0.00 | 0.66 | 0.66 | 90 | 1012.1 |
| 20260904040029 | 79 | 160 | 1.0 | 4.0 | 0.00 | 0.66 | 0.66 | 90 | 1012.1 |
| 20260904035505 | 79 | 175 | 1.0 | 3.0 | 0.00 | 0.66 | 0.66 | 90 | 1012.1 |
| 20260904035006 | 79 | 171 | 1.0 | 4.0 | 0.00 | 0.66 | 0.66 | 90 | 1012.1 |
| 20260904034520 | 79 | 113 | 1.0 | 4.0 | 0.00 | 0.66 | 0.66 | 90 | 1012.1 |
| 20260904034006 | 79 | 156 | 1.0 | 2.0 | 0.00 | 0.66 | 0.66 | 90 | 1012.2 |
| 20260904033504 | 79 | 98 | 0.0 | 2.0 | 0.00 | 0.66 | 0.66 | 90 | 1012.3 |
| 20260904033026 | 79 | 143 | 0.0 | 2.0 | 0.00 | 0.66 | 0.66 | 90 | 1012.3 |
| 20260904032504 | 79 | 117 | 1.0 | 2.0 | 0.00 | 0.66 | 0.66 | 90 | 1012.2 |
| 20260904032006 | 79 | 140 | 1.0 | 3.0 | 0.00 | 0.66 | 0.66 | 90 | 1012.2 |
| 20260904031520 | 79 | 137 | 0.0 | 3.0 | 0.00 | 0.66 | 0.66 | 90 | 1012.2 |
| 20260904031005 | 79 | 112 | 1.0 | 2.0 | 0.00 | 0.66 | 0.66 | 90 | 1012.2 |
| 20260904030505 | 79 | 148 | 1.0 | 2.0 | 0.00 | 0.66 | 0.66 | 90 | 1012.3 |
| 20260904030029 | 79 | 144 | 0.0 | 3.0 | 0.00 | 0.66 | 0.66 | 91 | 1012.2 |
| 20260904025504 | 79 | 156 | 0.0 | 3.0 | 0.00 | 0.66 | 0.66 | 91 | 1012.3 |
| 20260904025004 | 79 | 145 | 0.0 | 1.0 | 0.00 | 0.66 | 0.66 | 90 | 1012.2 |
| 20260904024518 | 79 | 145 | 0.0 | 0.0 | 0.00 | 0.66 | 0.66 | 90 | 1012.2 |
| 20260904024006 | 79 | 145 | 0.0 | 1.0 | 0.00 | 0.66 | 0.66 | 90 | 1012.2 |
| 20260904023504 | 79 | 145 | 0.0 | 1.0 | 0.00 | 0.66 | 0.66 | 90 | 1012.1 |
| 20260904022503 | 79 | 150 | 0.0 | 1.0 | 0.00 | 0.66 | 0.66 | 90 | 1011.8 |
| 20260904022005 | 79 | 128 | 0.0 | 1.0 | 0.00 | 0.66 | 0.66 | 90 | 1011.7 |
| 20260904021519 | 79 | 104 | 0.0 | 1.0 | 0.00 | 0.66 | 0.66 | 90 | 1011.7 |
| 20260904021005 | 79 | 104 | 0.0 | 1.0 | 0.00 | 0.66 | 0.66 | 90 | 1011.7 |
| 20260904020504 | 79 | 104 | 0.0 | 1.0 | 0.00 | 0.66 | 0.66 | 90 | 1011.7 |
| 20260904020030 | 79 | 104 | 0.0 | 1.0 | 0.00 | 0.66 | 0.66 | 90 | 1011.7 |
| 20260904015504 | 79 | 104 | 0.0 | 1.0 | 0.00 | 0.66 | 0.66 | 90 | 1011.6 |
| 20260904015005 | 79 | 104 | 0.0 | 1.0 | 0.00 | 0.66 | 0.66 | 90 | 1011.5 |
| 20260904014520 | 79 | 104 | 0.0 | 1.0 | 0.00 | 0.66 | 0.66 | 90 | 1011.4 |
| 20260904014005 | 79 | 104 | 0.0 | 1.0 | 0.00 | 0.66 | 0.66 | 90 | 1011.4 |
| 20260904013504 | 79 | 105 | 0.0 | 1.0 | 0.00 | 0.66 | 0.66 | 90 | 1011.4 |
| 20260904013027 | 79 | 104 | 0.0 | 1.0 | 0.00 | 0.66 | 0.66 | 90 | 1011.4 |
| 20260904012006 | 79 | 104 | 0.0 | 1.0 | 0.00 | 0.66 | 0.66 | 90 | 1011.3 |
| 20260904011518 | 79 | 104 | 0.0 | 1.0 | 0.00 | 0.66 | 0.66 | 90 | 1011.3 |
| 20260904011006 | 79 | 104 | 0.0 | 2.0 | 0.00 | 0.66 | 0.66 | 90 | 1011.2 |
| 20260904005502 | 79 | 97 | 1.0 | 3.0 | 0.00 | 0.66 | 0.66 | 90 | 1011.1 |
| 20260904005005 | 79 | 98 | 1.0 | 3.0 | 0.00 | 0.66 | 0.66 | 90 | 1011.1 |
| 20260904004520 | 79 | 139 | 0.0 | 1.0 | 0.00 | 0.66 | 0.66 | 90 | 1011.1 |
| 20260904003503 | 79 | 78 | 0.0 | 2.0 | 0.00 | 0.66 | 0.66 | 90 | 1011.3 |
| 20260904003026 | 79 | 104 | 1.0 | 2.0 | 0.00 | 0.66 | 0.66 | 90 | 1011.2 |
| 20260904002502 | 79 | 112 | 0.0 | 2.0 | 0.00 | 0.66 | 0.66 | 90 | 1011.3 |
| 20260904001518 | 80 | 42 | 1.0 | 2.0 | 0.00 | 0.66 | 0.66 | 90 | 1011.3 |
| 20260904001003 | 80 | 70 | 0.0 | 2.0 | 0.00 | 0.66 | 0.66 | 90 | 1011.4 |
| 20260904000503 | 80 | 52 | 0.0 | 1.0 | 0.00 | 0.66 | 0.66 | 90 | 1011.5 |
| 20260903235503 | 80 | 41 | 0.0 | 2.0 | 0.00 | 0.66 | 0.66 | 90 | 1011.5 |
| 20260903235004 | 80 | 10 | 0.0 | 1.0 | 0.00 | 0.66 | 0.66 | 90 | 1011.4 |
| 20260903234003 | 79 | 32 | 0.0 | 2.0 | 0.00 | 0.66 | 0.66 | 90 | 1011.5 |
| 20260903233503 | 80 | 96 | 1.0 | 2.0 | 0.00 | 0.66 | 0.66 | 90 | 1011.5 |
| 20260903233025 | 80 | 70 | 0.0 | 2.0 | 0.00 | 0.66 | 0.66 | 90 | 1011.5 |
| 20260903232502 | 79 | 77 | 0.0 | 2.0 | 0.00 | 0.66 | 0.66 | 90 | 1011.6 |
| 20260903232004 | 79 | 77 | 0.0 | 2.0 | 0.00 | 0.66 | 0.66 | 90 | 1011.7 |
| 20260903230503 | 79 | 45 | 1.0 | 3.0 | 0.00 | 0.66 | 0.66 | 90 | 1011.7 |
| 20260903230027 | 79 | 5 | 1.0 | 3.0 | 0.00 | 0.66 | 0.66 | 90 | 1011.7 |
| 20260903225505 | 79 | 89 | 1.0 | 3.0 | 0.00 | 0.66 | 0.66 | 90 | 1011.7 |
| 20260903224519 | 79 | 8 | 1.0 | 3.0 | 0.00 | 0.66 | 0.66 | 90 | 1011.7 |
| 20260903224005 | 79 | 68 | 1.0 | 3.0 | 0.00 | 0.66 | 0.66 | 90 | 1011.8 |
| 20260903223504 | 78 | 31 | 1.0 | 3.0 | 0.00 | 0.66 | 0.66 | 90 | 1011.8 |
| 20260903223028 | 78 | 86 | 1.0 | 3.0 | 0.00 | 0.66 | 0.66 | 90 | 1011.8 |
| 20260903222503 | 78 | 353 | 1.0 | 4.0 | 0.00 | 0.66 | 0.66 | 90 | 1011.7 |
| 20260903222006 | 78 | 42 | 2.0 | 4.0 | 0.01 | 0.66 | 0.66 | 90 | 1011.6 |
| 20260903221005 | 78 | 343 | 2.0 | 4.0 | 0.01 | 0.66 | 0.66 | 90 | 1011.7 |
| 20260903220505 | 78 | 84 | 2.0 | 6.0 | 0.01 | 0.66 | 0.66 | 90 | 1011.8 |
| 20260903220029 | 78 | 52 | 1.0 | 6.0 | 0.01 | 0.66 | 0.66 | 90 | 1011.9 |
| 20260903215503 | 78 | 146 | 1.0 | 4.0 | 0.02 | 0.66 | 0.66 | 90 | 1012.1 |
| 20260903215004 | 78 | 67 | 1.0 | 6.0 | 0.02 | 0.66 | 0.66 | 90 | 1012.2 |
| 20260903214519 | 78 | 25 | 1.0 | 6.0 | 0.03 | 0.66 | 0.66 | 90 | 1012.2 |
| 20260903214004 | 78 | 84 | 1.0 | 4.0 | 0.04 | 0.66 | 0.66 | 90 | 1012.2 |
| 20260903213504 | 78 | 137 | 1.0 | 3.0 | 0.05 | 0.66 | 0.66 | 90 | 1012.3 |
| 20260903213027 | 78 | 91 | 1.0 | 4.0 | 0.06 | 0.66 | 0.66 | 90 | 1012.3 |
| 20260903212503 | 79 | 54 | 1.0 | 3.0 | 0.07 | 0.66 | 0.66 | 90 | 1012.4 |
| 20260903212006 | 79 | 93 | 1.0 | 2.0 | 0.07 | 0.65 | 0.65 | 91 | 1012.5 |
| 20260903211004 | 78 | 32 | 1.0 | 4.0 | 0.08 | 0.65 | 0.65 | 90 | 1012.4 |
| 20260903210504 | 78 | 12 | 1.0 | 4.0 | 0.09 | 0.65 | 0.65 | 90 | 1012.5 |
| 20260903205503 | 77 | 341 | 0.0 | 2.0 | 0.09 | 0.64 | 0.64 | 90 | 1012.7 |
| 20260903205005 | 77 | 322 | 0.0 | 2.0 | 0.09 | 0.63 | 0.63 | 90 | 1012.7 |
| 20260903204518 | 77 | 322 | 0.0 | 2.0 | 0.09 | 0.63 | 0.63 | 90 | 1012.7 |
| 20260903204004 | 77 | 322 | 0.0 | 2.0 | 0.09 | 0.62 | 0.62 | 90 | 1012.8 |
| 20260903203026 | 77 | 322 | 0.0 | 2.0 | 0.07 | 0.60 | 0.60 | 90 | 1013.0 |
| 20260903202004 | 77 | 294 | 0.0 | 1.0 | 0.05 | 0.58 | 0.58 | 89 | 1013.1 |
| 20260903201518 | 77 | 294 | 0.0 | 1.0 | 0.05 | 0.57 | 0.57 | 89 | 1013.0 |
| 20260903201005 | 77 | 294 | 0.0 | 1.0 | 0.05 | 0.57 | 0.57 | 89 | 1012.9 |
| 20260903200503 | 77 | 294 | 0.0 | 1.0 | 0.04 | 0.56 | 0.56 | 89 | 1012.9 |
| 20260903200025 | 77 | 312 | 0.0 | 2.0 | 0.04 | 0.56 | 0.56 | 89 | 1012.8 |
| 20260903195502 | 77 | 312 | 1.0 | 2.0 | 0.03 | 0.55 | 0.55 | 89 | 1013.0 |
| 20260903195003 | 77 | 215 | 0.0 | 2.0 | 0.02 | 0.54 | 0.54 | 89 | 1013.1 |
| 20260903194516 | 77 | 185 | 0.0 | 2.0 | 0.03 | 0.54 | 0.54 | 89 | 1013.1 |
| 20260903194003 | 77 | 185 | 0.0 | 2.0 | 0.02 | 0.53 | 0.53 | 89 | 1013.2 |
| 20260903193502 | 77 | 159 | 0.0 | 3.0 | 0.02 | 0.53 | 0.53 | 89 | 1013.0 |
| 20260903192501 | 76 | 353 | 0.0 | 2.0 | 0.04 | 0.53 | 0.53 | 89 | 1012.9 |
| 20260903192006 | 76 | 295 | 0.0 | 2.0 | 0.21 | 0.53 | 0.53 | 89 | 1013.1 |
| 20260903191516 | 76 | 54 | 0.0 | 1.0 | 0.37 | 0.52 | 0.52 | 88 | 1013.2 |
| 20260903191004 | 76 | 54 | 0.0 | 1.0 | 0.52 | 0.52 | 0.52 | 88 | 1013.2 |
| 20260903190501 | 75 | 81 | 1.0 | 4.0 | 0.52 | 0.52 | 0.52 | 88 | 1013.2 |
| 20260903190028 | 75 | 353 | 2.0 | 6.0 | 0.52 | 0.52 | 0.52 | 88 | 1013.2 |
| 20260903185502 | 75 | 353 | 1.0 | 6.0 | 0.52 | 0.52 | 0.52 | 82 | 1013.0 |
| 20260903185003 | 75 | 10 | 0.0 | 3.0 | 0.52 | 0.52 | 0.52 | 82 | 1013.2 |
| 20260903184003 | 75 | 143 | 2.0 | 12.0 | 0.51 | 0.51 | 0.51 | 82 | 1013.4 |
| 20260903183503 | 75 | 143 | 3.0 | 12.0 | 0.51 | 0.51 | 0.51 | 82 | 1013.5 |
| 20260903183026 | 76 | 99 | 5.0 | 12.0 | 0.51 | 0.51 | 0.51 | 82 | 1013.6 |
| 20260903182503 | 76 | 94 | 6.0 | 13.0 | 0.49 | 0.49 | 0.49 | 81 | 1013.5 |
| 20260903182004 | 79 | 162 | 6.0 | 13.0 | 0.32 | 0.32 | 0.32 | 76 | 1014.1 |
| 20260903181518 | 83 | 139 | 4.0 | 13.0 | 0.15 | 0.15 | 0.15 | 76 | 1014.2 |
| 20260903181004 | 85 | 133 | 3.0 | 9.0 | 0.00 | 0.00 | 0.00 | 73 | 1013.8 |
| 20260903180504 | 86 | 329 | 3.0 | 7.0 | 0.00 | 0.00 | 0.00 | 72 | 1013.5 |
| 20260903180026 | 86 | 22 | 3.0 | 9.0 | 0.00 | 0.00 | 0.00 | 71 | 1013.4 |
| 20260903175004 | 86 | 50 | 3.0 | 8.0 | 0.00 | 0.00 | 0.00 | 70 | 1013.4 |
| 20260903174518 | 86 | 312 | 3.0 | 8.0 | 0.00 | 0.00 | 0.00 | 69 | 1013.6 |
| 20260903174004 | 87 | 267 | 3.0 | 8.0 | 0.00 | 0.00 | 0.00 | 68 | 1013.6 |
| 20260903173501 | 87 | 5 | 3.0 | 7.0 | 0.00 | 0.00 | 0.00 | 68 | 1013.6 |
| 20260903173025 | 88 | 48 | 3.0 | 5.0 | 0.00 | 0.00 | 0.00 | 70 | 1013.4 |
| 20260903172502 | 88 | 2 | 2.0 | 5.0 | 0.00 | 0.00 | 0.00 | 70 | 1013.3 |
| 20260903172004 | 88 | 55 | 3.0 | 5.0 | 0.00 | 0.00 | 0.00 | 70 | 1013.2 |
| 20260903171516 | 88 | 27 | 3.0 | 5.0 | 0.00 | 0.00 | 0.00 | 70 | 1013.1 |
| 20260903171002 | 88 | 317 | 3.0 | 6.0 | 0.00 | 0.00 | 0.00 | 70 | 1013.3 |
| 20260903165503 | 88 | 245 | 2.0 | 4.0 | 0.00 | 0.00 | 0.00 | 71 | 1013.3 |
| 20260903165003 | 88 | 323 | 1.0 | 4.0 | 0.00 | 0.00 | 0.00 | 71 | 1013.4 |
| 20260903164518 | 88 | 245 | 2.0 | 5.0 | 0.00 | 0.00 | 0.00 | 73 | 1013.6 |
| 20260903164004 | 88 | 204 | 2.0 | 8.0 | 0.00 | 0.00 | 0.00 | 72 | 1013.7 |
| 20260903163503 | 88 | 344 | 2.0 | 7.0 | 0.00 | 0.00 | 0.00 | 72 | 1013.6 |
| 20260903162502 | 88 | 262 | 2.0 | 4.0 | 0.00 | 0.00 | 0.00 | 72 | 1013.5 |